星链-36149(STARLINK-36149)

导读

STARLINK-36149是美国SpaceX星链计划的卫星,于2025年12月8日发射。星链计划旨在打造全球卫星互联网星座,为全球偏远、欠发达地区提供低成本高速互联网接入服务。该卫星入轨后将和其他星链卫星协同工作,扩展星链星座的网络覆盖范围,提升卫星互联网服务的容量与稳定性。

基本信息
目录编号:
66969
目录名称:
STARLINK-36149
国际标识:
2025-288L
轨道中心:
EARTH
卫星名称:
星链-36149
卫星全名:
星链-36149(STARLINK-36149)
卫星状态:
在轨 (已飞行271 天)
发射日期:
2025-12-08 UTC
国别 :
美国 (US)
星等 :
--
轨道信息
数据来源 国际轨道数据
星历时间: 2026-09-05T07:32:36+0800
18小时前
查看轨道信息
半长轴: 6861.157km
偏心率: 0.0001617
轨道倾角: 43.001°
近地点辐角 267.653°
升交点赤经 91.260°
平近点角 92.413°
近地点: 481.91km
远地点: 484.13km
周期: 94.266分钟
每日圈数: 15.2759
详细信息
固有亮度:
5
最大亮度:
2.5
卫星平台:
Starlink V1.0
覆盖范围:
全球
运营商:
太空探索技术公司
运营商所在国:
美国
制造商(研发单位):
太空探索技术公司
制造商所在国:
美国
使用方式:
暂无
卫星简介
Starlink 计划是 SpaceX 推出的全球卫星互联网项目,通过发射低轨道卫星,为全球尤其是偏远地区提供高速、低延迟的互联网服务。自 2019 年起,Starlink 已部署数千颗卫星,旨在缩小全球数字鸿沟,推动互联网普及。该项目还为军事、航空等行业提供通信支持,带来广泛经济效益。
2D轨道图
3D轨道图
轨道高度分析图
轨道倾角分析图
轨道综合分析图
查看轨道综合分析图